Location: Unspecified
(0.0000°N, 0.0000°E)
Time: 03:06:17
(UTC+00:00)

Courier 1B Rocket - Pass Details

Date: 18 December 2018
Orbit: 920 x 1202 km, 28.2° (Epoch: 18 March)

Event Time Altitude Azimuth Distance (km) Brightness Sun altitude
Rises 14:34:15 0° 313° (NW) 3,928 8.3 45.2°
Reaches altitude 10° 14:37:08 10° 320° (NW) 3,009 7.7 44.6°
Maximum altitude 14:44:11 43° 30° (NNE) 1,586 6.2 43.1°
Drops below altitude 10° 14:51:30 10° 99° (E) 3,127 7.4 41.6°
Sets 14:54:32 0° 105° (ESE) 4,095 7.9 40.9°
